Simultaneous Nadir Overpasses (SNOs) Predictions

Prediction of SNOs between AQUA and METOP-B Satellite Orbit:

Table of predicted SNOs for the next 14.0 days since TLE Epoch: 11/30/2013
Index Date (AQUA) Time (AQUA) Lat,Lon (AQUA) SZA (AQUA ) Date (METOP-B) Time (METOP-B) Lat,Lon (METOP-B) SZA (METOP-B ) Distance(km) Time Diff (sec)
1 11/30/2013 10:34:56 -73.69,-164.24 84.69 11/30/2013 10:34:36 -73.70,-164.30 84.68 2.04 20
2 11/30/2013 11:24:25 73.76, 3.24 95.39 11/30/2013 11:25:14 73.76, 3.18 95.39 2.11 49
3 12/03/2013 05:19:36 73.20, 95.60 95.23 12/03/2013 05:18:28 73.18, 93.60 95.25 64.43 68
4 12/03/2013 06:09:11 -73.69, -97.81 84.26 12/03/2013 06:09:00 -73.71, -97.88 84.24 2.77 11
5 12/03/2013 06:58:40 73.77, 69.67 95.83 12/03/2013 06:59:38 73.76, 69.58 95.82 2.70 58
6 12/06/2013 00:53:59 73.62, 161.16 96.03 12/06/2013 00:52:46 73.53, 160.77 95.95 15.87 73
7 12/06/2013 01:43:27 -73.74, -31.47 83.84 12/06/2013 01:43:24 -73.76, -31.37 83.83 3.59 3
8 12/06/2013 02:32:56 73.82, 135.99 96.25 12/06/2013 02:34:02 73.81, 136.09 96.23 3.59 66
9 12/08/2013 20:28:14 73.67,-132.50 96.40 12/08/2013 20:27:08 73.66,-132.51 96.40 0.57 66
10 12/08/2013 21:17:41 -73.74, 34.99 83.53 12/08/2013 21:17:49 -73.75, 35.01 83.52 1.40 8
11 12/08/2013 22:07:12 73.92,-157.79 96.67 12/08/2013 22:08:24 73.94,-157.18 96.67 18.93 72
12 12/11/2013 16:02:27 73.66, -66.04 96.64 12/11/2013 16:01:32 73.69, -66.04 96.68 3.36 55
13 12/11/2013 16:51:54 -73.73, 101.46 83.29 12/11/2013 16:52:14 -73.73, 101.37 83.29 2.63 20




NCC Satellite Simultaneous Nadir Overpasses (SNOs) Prediction Service
